User: anonymous   Login
Location: Seasalter
(51.3333°N, 1.0167°E)
Time: 10:33:17
(UTC+00:00)
Language:

Cosmos 1484 Rocket - Orbit

View from above orbital plane
View from above orbital plane
View from above satellite
View from above satellite

Ground track
Ground track

The orbit data is extracted from the following two-line orbital elements,

1 14208U 83075B   24056.91669674  .00008815  00000-0  41299-3 0  9993
2 14208  97.5591  35.8068 0031513 333.0304  26.9291 15.19502540216675
Epoch (UTC): 25 February 2024 22:00:02
Eccentricity: 0.0031513
inclination: 97.5591°
perigee height: 485 km
apogee height: 529 km
right ascension of ascending node: 35.8068°
argument of perigee: 333.0304°
revolutions per day: 15.19502540
mean anomaly at epoch: 26.9291°
orbit number at epoch: 21667

The dashed part of the orbit path shows where the satellite is in the earth's shadow,  

DLR